sat.trackr.live / text

‹ back to catalog

STARLINK-36628

NORAD 67595 · 2026-018G

PAYLOAD ACTIVE UNKNOWN

§ Identity

Operator
Country
US
Launch date
2026-01-29
Launch site
AFWTR
Launch vehicle
Mass (kg)
RCS (m²)

Purposes: comms

External: N2YO · Heavens-Above · Gunter

§ Orbital elements

Epoch: 2026-05-25T03:49:59.076192Z

Period
93.91 min
Inclination
97.2837°
Eccentricity
0.0000911
Mean motion
15.33449731 rev/d
Perigee alt
464.9 km
Apogee alt
466.2 km
Semi-major
6,843.7 km
B*
5.2610e-4
RAAN
210.2892°
Arg perigee
78.8187°
Mean anomaly
281.3158°
Rev number
1,905

§ Raw data

STARLINK-366281 67595U 26018G   26145.15971153  .00016950  00000+0  52610-3 0  99962 67595  97.2837 210.2892 0000911  78.8187 281.3158 15.33449731 19057

JSON: /api/v1/satellites/67595 · /tle

For live sub-satellite position, see the globe view (requires WebGL).

§ Visibility from observer

Set your observer location to see the next 7 days of passes ≥ 10°. The values pass through the URL so the page stays shareable.

No JS? Fill the form by hand. The geolocation button needs JavaScript.